AirNav   Everest Fuels
 
 1094 users online  

4CO6 Lutheran Medical Center Heliport
Wheat Ridge, Colorado, USA

GOING TO WHEAT RIDGE?


FAA INFORMATION EFFECTIVE 10 SEPTEMBER 2020

Location

FAA Identifier: 4CO6
Lat/Long: 39-45-57.2600N 105-05-33.5500W
39-45.954333N 105-05.559167W
39.7659056,-105.0926528
(estimated)
Elevation: 5500 ft. / 1676 m (estimated)
Variation: 12E (1985)
Time zone: UTC -6 (UTC -7 during Standard Time)
Zip code: 80033

Heliport Operations

Heliport use: Private use, MEDICAL USE.
Activation date: 04/1970
Control tower: no
ARTCC: DENVER CENTER
FSS: DENVER FLIGHT SERVICE STATION
Attendance: UNATNDD
Wind indicator: lighted
Segmented circle: no
Lights: FOR PERIMETER LGTS CALL 303-425-2089.

Heliport Communications

WX AWOS-3 at BJC (9 nm N): PHONE 720-887-8067
WX AWOS-3 at EIK (15 nm N): 133.825 (303-604-4339)
WX ASOS at APA (16 nm SE): PHONE 720-873-2799
WX AWOS-3 at BDU (18 nm N): 118.825 (303-541-9540)

Nearby radio navigation aids

VOR radial/distance  VOR name  Freq  Var
BJCr155/9.1JEFFCO VOR/DME115.4011E
DENr254/20.1DENVER VOR/DME117.9008E
FQFr271/22.2FALCON VORTAC116.3011E
DVVr242/22.9MILE HIGH VORTAC114.7008E

Heliport Services

Airframe service: NONE
Powerplant service: NONE

Runway Information

Helipad H1

Dimensions: 60 x 60 ft. / 18 x 18 m
Surface: concrete
Runway edge lights: PERI
Latitude: 39-45.954333N
Longitude: 105-05.559167W
Elevation: 5500.0 ft.
Traffic pattern: leftleft

Heliport Ownership and Management from official FAA records

Ownership: Privately-owned
Owner: LUTHERAN MEDICAL CENTER
8300 W. 38TH AVE.
WHEAT RIDGE, CO 80033
Phone (303) 403-3790
Manager: DARRELL SMITH
8300 W 38TH AVE
WHEAT RIDGE, CO 80033
Phone 303-467-8732
OR 303-425-2106

Additional Remarks

A52-H1 LGTD 20' WIND SOCK 85' WSW TOUCHDOWN AREA; BLDG WEST.
FOR CD CTC DENVER APCH AT 303-342-1916.

Instrument Procedures

There are no published instrument procedures at 4CO6.

Some nearby airports with instrument procedures:

KBJC - Rocky Mountain Metropolitan Airport (9 nm N)
KEIK - Erie Municipal Airport (15 nm N)
KBKF - Buckley Air Force Base (16 nm E)
KAPA - Centennial Airport (16 nm SE)
KDEN - Denver International Airport (20 nm E)
 
Loc | Ops | Rwys | IFR | FBO | Links
Com | Nav | Svcs | Stats | Notes

AirBoss

 
Area around 4CO6 (Lutheran Medical Center Heliport)
 
Road maps at: MapQuest Bing Google
 
Aerial photo
No photo
 
Sectional chart

 
Airport distance calculator
Flying to Lutheran Medical Center Heliport? Find the distance to fly.

From to 4CO6

Sunrise and sunset
Times for 20-Sep-2020
 Local
(UTC-6)
 Zulu
(UTC)
Morning civil twilight06:2112:21
Sunrise06:4812:48
Sunset18:5900:59
Evening civil twilight19:2601:26

Current date and time
Zulu (UTC)  21-Sep-2020 02:02:43
Local (UTC-6)  20-Sep-2020 20:02:43
 
METAR
KBJC 
9nm N 
210145Z 26003KT 10SM BKN100 20/02 A3014
KEIK 
15nm N 
210155Z AUTO 00000KT 10SM CLR 21/03 A3011 RMK AO2 T02070032
KBKF 
16nm E 
210058Z 35011KT 10SM FEW055 BKN130 BKN200 24/02 A3014 RMK AO2A PK WND 35026/29 SLP139 T02410017
KAPA 
16nm SE 
210153Z 01006KT 10SM SCT090 BKN120 BKN220 23/02 A3016 RMK AO2 SLP149 T02280022
K1V5 
18nm N 
AWOS 118.825 303-541-9540
No observation available
TAF
KBJC 
9nm N 
201736Z 2018/2118 36007KT P6SM SCT100 FM202000 08007KT P6SM FEW100 SCT220 FM210000 34007KT P6SM SCT150 SCT220 FM211700 VRB06KT P6SM FEW120 SCT220
KBKF 
16nm E 
201706Z 2017/2123 16006KT 9999 BKN110 BKN200 QNH3010INS BECMG 2020/2021 18006KT 9999 SCT100 BKN120 BKN200 QNH3011INS BECMG 2105/2106 20009KT 9999 FEW110 SCT200 QNH3017INS TX28/2021Z TN11/2109Z
KAPA 
16nm SE 
202049Z 2021/2118 34008KT P6SM FEW090 BKN140 FM210100 08008KT P6SM SCT100 BKN140 FM210400 14007KT P6SM SCT140 SCT220 FM210700 18006KT P6SM SCT140 SCT220 FM211300 VRB06KT 6SM FU FEW140 SCT220
NOTAMs
Click for the latest NOTAMs
NOTAMs are issued by the DoD/FAA and will open in a separate window not controlled by AirNav.

 

 
 

Would you like to see your business listed on this page?

 If your business provides an interesting product or service to pilots, flight crews, aircraft, or users of the Lutheran Medical Center Heliport, you should consider listing it here.  To start the listing process, click on the button below
 
Add a business
 

Other Pages about Lutheran Medical Center Heliport

Update a link
 
Copyright © AirNav, LLC. All rights reserved. Privacy Policy  Contact